Weather Roundup
Issued by NWS

Home | Current Version | Previous Version | Graphics & Text | Print | Product List | Glossary Off
Versions: 1 2 3 4 5 6 7 8 9 10 11 12 13 14 15 16 17 18 19 20 21 22 23 24 25 26 27 28 29 30 31 32 33 34 35 36 37 38 39 40 41 42 43 44 45 46 47 48 49 50

000
NZUS93 KARX 280810
HRRWXR

CURRENT HOURLY OBSERVATIONS ACROSS
MUCH OF THE UPPER MISSISSIPPI VALLEY
NATIONAL WEATHER SERVICE LA CROSSE WI
200 AM CST WED JAN 28 2015


...SOUTHEAST MINNESOTA...


CITY           SKY/WX    TMP DP  RH WIND       PRES   REMARKS
ROCHESTER      CLOUDY    26  24  92 SE17      30.10F FOG     WCI  13
ROCHESTER/MAYO CLOUDY    27  23  85 SE14G21   30.11F WCI  16
WINONA         CLOUDY    30  25  80 S5        30.17F WCI  25
AUSTIN         CLOUDY    28  27  93 SE13      30.08F WCI  18
ALBERT LEA     CLOUDY    28  28 100 SE14G20   30.07S FOG     WCI  17
DODGE CENTER   CLOUDY    28  27  93 SE17      30.08F WCI  16
PRESTON        CLOUDY    25  23  91 S12       30.13F WCI  14
OWATONNA       CLOUDY    28  27  93 SE17G23   30.08S WCI  16
FARIBAULT      CLOUDY    30  27  86 SE12      30.08S WCI  21
$$

...ELSEWHERE IN MINNESOTA...


CITY           SKY/WX    TMP DP  RH WIND       PRES   REMARKS
MINNEAPOLIS    CLOUDY    30  25  81 SE12      30.09F WCI  20
INTNL FALLS    CLOUDY    27  23  85 S3        29.98F
DULUTH         CLOUDY    25  19  78 S10       30.04F WCI  15
RED WING       CLOUDY    30  25  80 SE7       30.12F WCI  23
REDWOOD FALLS  CLOUDY    33  31  92 SE17      30.00S WCI  22
MANKATO        CLOUDY    30  27  86 SE15      30.05S WCI  19
WORTHINGTON    CLEAR     32  28  86 S13G18    29.96S WCI  22
FAIRMONT       CLOUDY    30  27  86 SE20      30.01F WCI  18
$$

...SOUTHWEST WISCONSIN...


CITY           SKY/WX    TMP DP  RH WIND       PRES   REMARKS
LA CROSSE      CLOUDY    28  21  75 S12       30.19F WCI  18
PRAIRIE DU CHI CLOUDY    27  22  80 SE8       30.22S WCI  19
BOSCOBEL       CLOUDY    28  22  78 S6        30.22S WCI  22
LONE ROCK      CLOUDY    28  22  78 S8        30.23S WCI  20
PLATTEVILLE    CLOUDY    27  24  88 SE9       30.20S WCI  18
FORT MC COY    CLOUDY    26  22  83 S8        30.20S WCI  18
CAMP DOUGLAS   CLOUDY    27  27 100 S8        30.19S WCI  18
VIROQUA        CLOUDY    25  24  96 S10       30.16F WCI  15
WIS DELLS      CLOUDY    26  24  90 S5        30.20S FOG     WCI  20
$$

...ELSEWHERE IN WISCONSIN...


CITY           SKY/WX    TMP DP  RH WIND       PRES   REMARKS
MILWAUKEE      MOCLDY    27  17  66 CALM      30.26R
MADISON        CLOUDY    25  19  78 S9        30.22F WCI  15
GREEN BAY      CLOUDY    17  14  88 CALM      30.24F
EAU CLAIRE     CLOUDY    26  20  77 S9        30.15S WCI  17
BLACK RVR FLS  CLOUDY    27  22  82 S5        30.18S WCI  21
MEDFORD        CLOUDY    23  21  93 S9        30.13F FOG     WCI  13
WAUSAU         CLOUDY    23  19  85 SE8       30.16F WCI  14
WIS RAPIDS     CLOUDY    24  19  81 SE5       30.20S WCI  18
MARSHFIELD     CLOUDY    24  21  88 S8        30.16F FOG     WCI  15
RICE LAKE      CLOUDY    25  21  84 S12       30.14F WCI  15
$$

...NORTHEAST IOWA...


CITY           SKY/WX    TMP DP  RH WIND       PRES   REMARKS
DECORAH        CLOUDY    25  23  93 S9G16     30.15F WCI  15
MASON CITY     CLOUDY    29  27  92 SE15      30.10S FOG     WCI  18
CHARLES CITY   CLOUDY    28  28 100 SE18      30.12F FOG     WCI  16
OELWEIN        CLOUDY    27  25  93 SE15      30.16F FOG     WCI  15
$$

...ELSEWHERE IN IOWA...


CITY           SKY/WX    TMP DP  RH WIND       PRES   REMARKS
DES MOINES     CLOUDY    30  26  85 SE10      30.10F WCI  21
IOWA CITY      CLOUDY    27  24  89 SE9       30.22S FOG     WCI  18
FORT DODGE     CLOUDY    28  25  86 SE12      30.05F WCI  18
$$

...NORTHERN ILLINOIS...


CITY           SKY/WX    TMP DP  RH WIND       PRES   REMARKS
CHICAGO-OHARE  MOCLDY    23  18  81 W5        30.26R WCI  17
CHICAGO-MIDWAY MOCLDY    25  20  81 CALM      30.27S
MOLINE         CLOUDY    28  23  81 SE6       30.24R WCI  22
ROCKFORD       CLOUDY    23  17  78 SE3       30.27S
PEORIA         CLOUDY    30  23  75 SE6       30.26R WCI  24
$$

NOTE: "FAIR" INDICATES FEW OR NO CLOUDS BELOW 12,000 FEET WITH NO
SIGNIFICANT WEATHER AND/OR OBSTRUCTIONS TO VISIBILITY. WIND
SPEEDS ARE IN MILES-PER-HOUR.



USA.gov is the U.S. government's official web portal to all federal, state and local government web resources and services.